Atlantic City Int. Airport (ACY)

 

Airport Diagram
Current Weather/Forecast (MVFR Conditions)
METAR KACY 302216Z 18018G31KT 6SM BR OVC010 18/16 A2938 RMK AO2 PK WND 18039/2156 T01780161
TAF KACY 301739Z 3018/0118 17019G35KT 4SM BR VCTS SCT004 OVC012CB WS020/18060KT TEMPO 3018/3022 1SM TSRA OVC004CB FM302300 19016G29KT 6SM BR VCSH BKN015 WS020/20050KT FM010100 20012G22KT P6SM BKN045 FM010500 23007KT P6SM BKN080 FM011400 23015G25KT P6SM BKN045

All Charts
General
Chart Name Download
AIRPORT DIAGRAM
TAKEOFF MINIMUMS
ALTERNATE MINIMUMS
RADAR MINIMUMS
HOT SPOT
LAHSO

Departures
Chart Name Download
ATLANTIC CITY TWO

Approaches
Chart Name Download
HI-ILS OR LOC RWY 13
ILS OR LOC RWY 13
ILS OR LOC/DME RWY 31
RNAV (RNP) Z RWY 13
RNAV (RNP) Z RWY 31
RNAV (GPS) RWY 04
RNAV (GPS) RWY 22
RNAV (GPS) Y RWY 13
RNAV (GPS) Y RWY 31
VOR/DME RWY 22
HI-VOR/DME OR TACAN RWY 31
VOR RWY 04
VOR RWY 13
VOR RWY 31
COPTER ILS OR LOC/DME RWY 13


Inbound Traffic (Arrivals)

No inbound traffic.


Outbound Traffic (Departures)

No outbound traffic.